Time,TemperatureF,DewpointF,PressureIn,WindDirection,WindDirectionDegrees,WindSpeedMPH,WindSpeedGustMPH,Humidity,HourlyPrecipIn,Conditions,Clouds,dailyrainin,SoftwareType,DateUTC
2013-08-23 00:00:00,65.5,65.5,30.09,WSW,238,0.0,0.0,100,0.00,,OVC055,0.02,VWS V14.01,2013-08-23 04:00:00,
2013-08-23 00:01:00,65.4,65.4,30.09,WSW,238,0.0,0.0,100,0.00,,OVC055,0.00,VWS V14.01,2013-08-23 04:01:00,
2013-08-23 00:06:00,65.4,65.4,30.08,WSW,238,0.0,0.0,100,0.00,,OVC055,0.00,VWS V14.01,2013-08-23 04:06:00,
2013-08-23 00:11:00,65.4,65.4,30.08,WSW,238,0.0,0.0,100,0.00,,OVC055,0.00,VWS V14.01,2013-08-23 04:11:00,
2013-08-23 00:16:00,65.3,65.3,30.08,WSW,238,0.0,0.0,100,0.00,,OVC055,0.00,VWS V14.01,2013-08-23 04:16:00,
2013-08-23 00:21:00,65.3,65.3,30.08,WSW,238,0.0,0.0,100,0.00,,OVC055,0.00,VWS V14.01,2013-08-23 04:21:00,
2013-08-23 00:26:00,65.3,65.3,30.08,WSW,238,0.0,0.0,100,0.00,,OVC055,0.00,VWS V14.01,2013-08-23 04:26:00,
2013-08-23 00:30:00,65.3,65.3,30.08,WSW,238,0.0,0.0,100,0.00,,OVC055,0.00,VWS V14.01,2013-08-23 04:30:00,
2013-08-23 00:31:00,65.3,65.3,30.08,WSW,238,0.0,0.0,100,0.00,,OVC055,0.00,VWS V14.01,2013-08-23 04:31:00,
2013-08-23 00:36:00,65.2,65.2,30.08,WSW,238,0.0,0.0,100,0.00,,OVC055,0.00,VWS V14.01,2013-08-23 04:36:00,
2013-08-23 00:41:00,65.2,65.2,30.07,WSW,238,0.0,0.0,100,0.00,,OVC055,0.00,VWS V14.01,2013-08-23 04:41:00,
2013-08-23 00:46:00,65.1,65.1,30.08,WSW,238,0.0,0.0,100,0.00,,OVC055,0.00,VWS V14.01,2013-08-23 04:46:00,
2013-08-23 00:51:00,65.1,65.1,30.08,WSW,238,0.0,0.0,100,0.00,,OVC055,0.00,VWS V14.01,2013-08-23 04:51:00,
2013-08-23 00:56:00,65.0,65.0,30.07,WSW,238,0.0,0.0,100,0.00,,OVC055,0.00,VWS V14.01,2013-08-23 04:56:00,
2013-08-23 01:00:00,65.0,65.0,30.07,WSW,238,0.0,0.0,100,0.00,,OVC055,0.00,VWS V14.01,2013-08-23 05:00:00,
2013-08-23 01:01:00,65.0,65.0,30.08,WSW,238,0.0,0.0,100,0.00,,OVC055,0.00,VWS V14.01,2013-08-23 05:01:00,
2013-08-23 01:06:00,65.1,65.1,30.08,WSW,238,0.0,0.0,100,0.00,,OVC055,0.00,VWS V14.01,2013-08-23 05:06:00,
2013-08-23 01:11:00,65.1,65.1,30.08,WSW,238,0.0,0.0,100,0.00,,OVC055,0.00,VWS V14.01,2013-08-23 05:11:00,
2013-08-23 01:16:00,65.2,65.2,30.08,WSW,238,0.0,0.0,100,0.00,,OVC055,0.00,VWS V14.01,2013-08-23 05:16:00,
2013-08-23 01:21:00,65.1,65.1,30.08,WSW,238,0.0,0.0,100,0.00,,OVC055,0.00,VWS V14.01,2013-08-23 05:21:00,
2013-08-23 01:26:00,65.1,65.1,30.07,WSW,238,0.0,0.0,100,0.00,,OVC055,0.00,VWS V14.01,2013-08-23 05:26:00,
2013-08-23 01:30:00,65.0,65.0,30.07,WSW,238,0.0,0.0,100,0.00,,OVC055,0.00,VWS V14.01,2013-08-23 05:30:00,
2013-08-23 01:31:00,65.0,65.0,30.07,WSW,238,0.0,0.0,100,0.00,,OVC055,0.00,VWS V14.01,2013-08-23 05:31:00,
2013-08-23 01:36:00,65.0,65.0,30.07,WSW,238,0.0,0.0,100,0.00,,OVC055,0.00,VWS V14.01,2013-08-23 05:36:00,
2013-08-23 01:41:00,64.9,64.9,30.07,WSW,238,0.0,0.0,100,0.00,,OVC055,0.00,VWS V14.01,2013-08-23 05:41:00,
2013-08-23 01:46:00,64.9,64.9,30.07,WSW,238,0.0,0.0,100,0.00,,OVC055,0.00,VWS V14.01,2013-08-23 05:46:00,
2013-08-23 01:51:00,64.9,64.9,30.07,WSW,238,0.0,0.0,100,0.00,,OVC055,0.00,VWS V14.01,2013-08-23 05:51:00,
2013-08-23 01:56:00,64.9,64.9,30.07,WSW,238,0.0,0.0,100,0.00,,OVC055,0.00,VWS V14.01,2013-08-23 05:56:00,
2013-08-23 02:00:00,64.9,64.9,30.07,WSW,238,0.0,0.0,100,0.00,,OVC055,0.00,VWS V14.01,2013-08-23 06:00:00,
2013-08-23 02:05:00,64.8,64.8,30.07,WSW,238,0.0,0.0,100,0.00,,OVC055,0.00,VWS V14.01,2013-08-23 06:05:00,
2013-08-23 02:10:00,64.8,64.8,30.06,WSW,238,0.0,0.0,100,0.00,,OVC055,0.00,VWS V14.01,2013-08-23 06:10:00,
2013-08-23 02:15:00,64.8,64.8,30.06,WSW,238,0.0,0.0,100,0.00,,OVC055,0.00,VWS V14.01,2013-08-23 06:15:00,
2013-08-23 02:20:00,64.7,64.7,30.05,WSW,238,0.0,0.0,100,0.00,,OVC055,0.00,VWS V14.01,2013-08-23 06:20:00,
2013-08-23 02:25:00,64.7,64.7,30.05,WSW,238,0.0,0.0,100,0.00,,OVC055,0.00,VWS V14.01,2013-08-23 06:25:00,
2013-08-23 02:30:00,64.7,64.7,30.05,WSW,238,0.0,0.0,100,0.00,,OVC055,0.00,VWS V14.01,2013-08-23 06:30:00,
2013-08-23 02:35:00,64.7,64.7,30.05,WSW,238,0.0,0.0,100,0.00,,OVC055,0.00,VWS V14.01,2013-08-23 06:35:00,
2013-08-23 02:40:00,64.7,64.7,30.05,WSW,238,0.0,0.0,100,0.00,,OVC055,0.00,VWS V14.01,2013-08-23 06:40:00,
2013-08-23 02:45:00,64.7,64.7,30.05,WSW,238,0.0,0.0,100,0.00,,OVC055,0.00,VWS V14.01,2013-08-23 06:45:00,
2013-08-23 02:50:00,64.7,64.7,30.05,WSW,238,0.0,0.0,100,0.01,,OVC055,0.01,VWS V14.01,2013-08-23 06:50:00,
2013-08-23 02:55:00,64.7,64.7,30.04,WSW,238,0.0,0.0,100,0.01,,OVC055,0.01,VWS V14.01,2013-08-23 06:55:00,
2013-08-23 03:00:00,64.8,64.8,30.04,WSW,238,0.0,0.0,100,0.01,,OVC055,0.01,VWS V14.01,2013-08-23 07:00:00,
2013-08-23 03:05:00,64.8,64.8,30.04,WSW,238,0.0,0.0,100,0.01,,OVC055,0.01,VWS V14.01,2013-08-23 07:05:00,
2013-08-23 03:10:00,64.8,64.8,30.04,WSW,238,0.0,0.0,100,0.01,,OVC055,0.01,VWS V14.01,2013-08-23 07:10:00,
2013-08-23 03:15:00,64.7,64.7,30.04,WSW,238,0.0,0.0,100,0.01,,OVC055,0.01,VWS V14.01,2013-08-23 07:15:00,
2013-08-23 03:20:00,64.6,64.6,30.03,WSW,240,0.0,0.0,100,0.01,,OVC055,0.01,VWS V14.01,2013-08-23 07:20:00,
2013-08-23 03:25:00,64.5,64.5,30.03,WSW,240,0.0,0.0,100,0.01,,OVC055,0.01,VWS V14.01,2013-08-23 07:25:00,
2013-08-23 03:30:00,64.5,64.5,30.03,WSW,240,0.0,0.0,100,0.01,,OVC055,0.01,VWS V14.01,2013-08-23 07:30:00,
2013-08-23 03:35:00,64.5,64.5,30.03,WSW,240,0.0,0.0,100,0.01,,OVC055,0.01,VWS V14.01,2013-08-23 07:35:00,
2013-08-23 03:40:00,64.5,64.5,30.03,WSW,240,0.0,0.0,100,0.01,,OVC055,0.01,VWS V14.01,2013-08-23 07:40:00,
2013-08-23 03:45:00,64.5,64.5,30.03,WSW,240,0.0,0.0,100,0.01,,OVC055,0.01,VWS V14.01,2013-08-23 07:45:00,
2013-08-23 03:50:00,64.5,64.5,30.03,WSW,240,0.0,0.0,100,0.01,,OVC055,0.01,VWS V14.01,2013-08-23 07:50:00,
2013-08-23 03:55:00,64.5,64.5,30.03,WSW,240,0.0,0.0,100,0.01,,OVC055,0.01,VWS V14.01,2013-08-23 07:55:00,
2013-08-23 04:00:00,64.5,64.5,30.02,WSW,240,0.0,0.0,100,0.00,,OVC055,0.01,VWS V14.01,2013-08-23 08:00:00,
2013-08-23 04:05:00,64.5,64.5,30.02,WSW,240,0.0,0.0,100,0.00,,OVC055,0.01,VWS V14.01,2013-08-23 08:05:00,
2013-08-23 04:10:00,64.5,64.5,30.02,WSW,240,0.0,0.0,100,0.00,,OVC055,0.01,VWS V14.01,2013-08-23 08:10:00,
2013-08-23 04:15:00,64.4,64.4,30.02,WSW,240,0.0,0.0,100,0.00,,OVC055,0.01,VWS V14.01,2013-08-23 08:15:00,
2013-08-23 04:20:00,64.4,64.4,30.02,WSW,240,0.0,0.0,100,0.00,,OVC055,0.01,VWS V14.01,2013-08-23 08:20:00,
2013-08-23 04:25:00,64.3,64.3,30.02,WSW,240,0.0,0.0,100,0.00,,OVC055,0.01,VWS V14.01,2013-08-23 08:25:00,
2013-08-23 04:30:00,64.3,64.3,30.02,WSW,240,0.0,0.0,100,0.00,,OVC055,0.01,VWS V14.01,2013-08-23 08:30:00,
2013-08-23 04:35:00,64.3,64.3,30.02,WSW,240,0.0,0.0,100,0.00,,OVC055,0.01,VWS V14.01,2013-08-23 08:35:00,
2013-08-23 04:40:00,64.3,64.3,30.02,WSW,240,0.0,0.0,100,0.00,,OVC055,0.01,VWS V14.01,2013-08-23 08:40:00,
2013-08-23 04:45:00,64.3,64.3,30.02,WSW,240,0.0,0.0,100,0.00,,OVC055,0.01,VWS V14.01,2013-08-23 08:45:00,
2013-08-23 04:50:00,64.3,64.3,30.02,WSW,240,0.0,0.0,100,0.00,,OVC055,0.01,VWS V14.01,2013-08-23 08:50:00,
2013-08-23 04:55:00,64.2,64.2,30.02,WSW,240,0.0,0.0,100,0.00,,OVC055,0.01,VWS V14.01,2013-08-23 08:55:00,
2013-08-23 05:00:00,64.2,64.2,30.02,WSW,240,0.0,0.0,100,0.00,,OVC055,0.01,VWS V14.01,2013-08-23 09:00:00,
2013-08-23 05:05:00,64.3,64.3,30.02,WSW,240,0.0,0.0,100,0.00,,OVC055,0.01,VWS V14.01,2013-08-23 09:05:00,
2013-08-23 05:10:00,64.2,64.2,30.02,WSW,240,0.0,0.0,100,0.00,,OVC055,0.01,VWS V14.01,2013-08-23 09:10:00,
2013-08-23 05:15:00,64.1,64.1,30.02,WSW,240,0.0,0.0,100,0.00,,OVC055,0.01,VWS V14.01,2013-08-23 09:15:00,
2013-08-23 05:20:00,64.1,64.1,30.02,WSW,240,0.0,0.0,100,0.00,,OVC055,0.01,VWS V14.01,2013-08-23 09:20:00,
2013-08-23 05:25:00,64.0,64.0,30.03,WSW,240,0.0,0.0,100,0.00,,OVC055,0.01,VWS V14.01,2013-08-23 09:25:00,
2013-08-23 05:30:00,63.8,63.8,30.03,WSW,240,0.0,0.0,100,0.00,,OVC055,0.01,VWS V14.01,2013-08-23 09:30:00,
2013-08-23 05:35:00,63.8,63.8,30.03,WSW,240,0.0,0.0,100,0.00,,OVC055,0.01,VWS V14.01,2013-08-23 09:35:00,
2013-08-23 05:40:00,63.8,63.8,30.03,WSW,240,0.0,0.0,100,0.00,,OVC055,0.01,VWS V14.01,2013-08-23 09:40:00,
2013-08-23 05:45:00,63.8,63.8,30.03,WSW,240,0.0,0.0,100,0.00,,OVC055,0.01,VWS V14.01,2013-08-23 09:45:00,
2013-08-23 05:50:00,63.8,63.8,30.03,NNW,341,0.0,0.0,100,0.00,,OVC055,0.01,VWS V14.01,2013-08-23 09:50:00,
2013-08-23 05:55:00,63.7,63.7,30.03,North,355,0.0,0.0,100,0.00,,OVC055,0.01,VWS V14.01,2013-08-23 09:55:00,
2013-08-23 06:00:00,63.5,63.5,30.04,North,355,0.0,0.0,100,0.00,,OVC055,0.01,VWS V14.01,2013-08-23 10:00:00,
2013-08-23 06:05:00,63.3,63.3,30.04,North,355,0.0,0.0,100,0.00,,OVC055,0.01,VWS V14.01,2013-08-23 10:05:00,
2013-08-23 06:10:00,63.4,63.4,30.04,North,355,0.0,0.0,100,0.00,,OVC055,0.01,VWS V14.01,2013-08-23 10:10:00,
2013-08-23 06:15:00,63.4,63.4,30.04,North,355,0.0,0.0,100,0.00,,OVC055,0.01,VWS V14.01,2013-08-23 10:15:00,
2013-08-23 06:20:00,63.3,63.3,30.04,North,355,0.0,0.0,100,0.00,,OVC055,0.01,VWS V14.01,2013-08-23 10:20:00,
2013-08-23 06:25:00,63.2,63.2,30.04,North,355,0.0,0.0,100,0.00,,OVC055,0.01,VWS V14.01,2013-08-23 10:25:00,
2013-08-23 06:30:00,63.2,63.2,30.04,North,355,0.0,0.0,100,0.00,,OVC055,0.01,VWS V14.01,2013-08-23 10:30:00,
2013-08-23 06:35:00,63.3,63.3,30.05,North,355,0.0,0.0,100,0.00,,OVC055,0.01,VWS V14.01,2013-08-23 10:35:00,
2013-08-23 06:40:00,63.3,63.3,30.05,North,5,0.0,0.0,100,0.00,,OVC055,0.01,VWS V14.01,2013-08-23 10:40:00,
2013-08-23 06:45:00,63.2,63.2,30.05,North,5,0.0,0.0,100,0.00,,OVC055,0.01,VWS V14.01,2013-08-23 10:45:00,
2013-08-23 06:50:00,63.4,63.4,30.05,North,5,0.0,0.0,100,0.00,,OVC055,0.01,VWS V14.01,2013-08-23 10:50:00,
2013-08-23 06:55:00,63.2,63.2,30.05,North,5,0.0,0.0,100,0.00,,OVC055,0.01,VWS V14.01,2013-08-23 10:55:00,
2013-08-23 07:00:00,63.2,63.2,30.05,North,5,0.0,0.0,100,0.00,,OVC055,0.01,VWS V14.01,2013-08-23 11:00:00,
2013-08-23 07:05:00,63.2,63.2,30.05,North,5,0.0,0.0,100,0.00,,OVC055,0.01,VWS V14.01,2013-08-23 11:05:00,
2013-08-23 07:10:00,63.1,63.1,30.06,North,5,0.0,0.0,100,0.00,,OVC055,0.01,VWS V14.01,2013-08-23 11:10:00,
2013-08-23 07:15:00,63.1,63.1,30.06,North,355,2.0,3.0,100,0.00,,OVC055,0.01,VWS V14.01,2013-08-23 11:15:00,
2013-08-23 07:20:00,63.0,63.0,30.06,North,355,0.0,3.0,100,0.00,,OVC055,0.01,VWS V14.01,2013-08-23 11:20:00,
2013-08-23 07:25:00,63.0,63.0,30.06,North,355,0.0,3.0,100,0.00,,OVC055,0.01,VWS V14.01,2013-08-23 11:25:00,
2013-08-23 07:30:00,63.1,63.1,30.06,North,355,0.0,2.0,100,0.00,,OVC055,0.01,VWS V14.01,2013-08-23 11:30:00,
2013-08-23 07:35:00,63.0,63.0,30.07,North,355,0.0,2.0,100,0.00,,OVC055,0.01,VWS V14.01,2013-08-23 11:35:00,
2013-08-23 07:40:00,62.9,62.9,30.07,North,355,0.0,2.0,100,0.00,,OVC055,0.01,VWS V14.01,2013-08-23 11:40:00,
2013-08-23 07:45:00,62.9,62.9,30.07,North,355,1.0,2.0,100,0.00,,OVC055,0.01,VWS V14.01,2013-08-23 11:45:00,
2013-08-23 07:50:00,62.9,62.9,30.07,North,355,1.0,2.0,100,0.00,,OVC055,0.01,VWS V14.01,2013-08-23 11:50:00,
2013-08-23 07:55:00,62.9,62.9,30.07,North,355,1.0,2.0,100,0.00,,OVC055,0.01,VWS V14.01,2013-08-23 11:55:00,
2013-08-23 08:00:00,63.0,63.0,30.07,North,355,0.0,1.0,100,0.00,,OVC055,0.01,VWS V14.01,2013-08-23 12:00:00,
2013-08-23 08:05:00,62.9,62.9,30.07,North,355,0.0,1.0,100,0.00,,OVC055,0.01,VWS V14.01,2013-08-23 12:05:00,
2013-08-23 08:10:00,62.9,62.9,30.07,North,355,0.0,2.0,100,0.00,,OVC055,0.01,VWS V14.01,2013-08-23 12:10:00,
2013-08-23 08:14:00,62.9,62.9,30.07,North,355,1.0,2.0,100,0.00,,OVC055,0.01,VWS V14.01,2013-08-23 12:14:00,
2013-08-23 08:19:00,62.9,62.9,30.07,North,355,0.0,2.0,100,0.00,,OVC055,0.01,VWS V14.01,2013-08-23 12:19:00,
2013-08-23 08:24:00,63.1,63.1,30.07,North,355,0.0,2.0,100,0.00,,OVC055,0.01,VWS V14.01,2013-08-23 12:24:00,
2013-08-23 08:29:00,63.1,63.1,30.07,North,355,0.0,1.0,100,0.00,,OVC055,0.01,VWS V14.01,2013-08-23 12:29:00,
2013-08-23 08:30:00,63.1,63.1,30.07,North,355,0.0,2.0,100,0.00,,OVC055,0.01,VWS V14.01,2013-08-23 12:30:00,
2013-08-23 08:34:00,63.2,63.2,30.08,North,355,0.0,2.0,100,0.00,,OVC055,0.01,VWS V14.01,2013-08-23 12:34:00,
2013-08-23 08:39:00,63.2,63.2,30.08,North,355,0.0,2.0,100,0.00,,OVC055,0.01,VWS V14.01,2013-08-23 12:39:00,
2013-08-23 08:44:00,63.4,63.4,30.08,North,355,0.0,2.0,100,0.00,,OVC055,0.01,VWS V14.01,2013-08-23 12:44:00,
2013-08-23 08:49:00,63.4,63.4,30.08,North,355,0.0,2.0,100,0.00,,OVC055,0.01,VWS V14.01,2013-08-23 12:49:00,
2013-08-23 08:54:00,63.6,63.6,30.08,North,355,0.0,2.0,100,0.00,,OVC055,0.01,VWS V14.01,2013-08-23 12:54:00,
2013-08-23 08:59:00,63.7,63.7,30.08,North,355,0.0,0.0,100,0.00,,OVC055,0.01,VWS V14.01,2013-08-23 12:59:00,
2013-08-23 09:00:00,63.6,63.6,30.08,North,355,0.0,2.0,100,0.00,,OVC055,0.01,VWS V14.01,2013-08-23 13:00:00,
2013-08-23 09:04:00,63.8,63.8,30.08,North,355,1.0,1.0,100,0.00,,OVC055,0.01,VWS V14.01,2013-08-23 13:04:00,
2013-08-23 09:09:00,63.8,63.8,30.08,North,355,0.0,2.0,100,0.00,,OVC055,0.01,VWS V14.01,2013-08-23 13:09:00,
2013-08-23 09:14:00,64.1,64.1,30.08,North,355,0.0,2.0,100,0.00,,OVC055,0.01,VWS V14.01,2013-08-23 13:14:00,
2013-08-23 09:19:00,64.2,64.2,30.07,North,355,0.0,2.0,100,0.00,,OVC055,0.01,VWS V14.01,2013-08-23 13:19:00,
2013-08-23 09:24:00,64.4,64.4,30.07,North,355,2.0,2.0,100,0.00,,OVC055,0.01,VWS V14.01,2013-08-23 13:24:00,
2013-08-23 09:29:00,64.3,64.3,30.07,North,5,0.0,1.0,100,0.00,,OVC055,0.01,VWS V14.01,2013-08-23 13:29:00,
2013-08-23 09:30:00,64.3,64.3,30.08,North,5,1.0,2.0,100,0.00,,OVC055,0.01,VWS V14.01,2013-08-23 13:30:00,
2013-08-23 09:34:00,64.4,64.4,30.07,North,5,0.0,1.0,100,0.00,,OVC055,0.01,VWS V14.01,2013-08-23 13:34:00,
2013-08-23 09:39:00,64.4,64.4,30.07,NW,322,0.0,2.0,100,0.00,,OVC055,0.01,VWS V14.01,2013-08-23 13:39:00,
2013-08-23 09:44:00,64.5,64.5,30.08,NW,322,0.0,2.0,100,0.00,,OVC055,0.01,VWS V14.01,2013-08-23 13:44:00,
2013-08-23 09:49:00,65.0,65.0,30.08,NW,322,0.0,2.0,100,0.00,,OVC055,0.01,VWS V14.01,2013-08-23 13:49:00,
2013-08-23 09:54:00,64.9,64.9,30.08,NW,322,0.0,2.0,100,0.00,,OVC055,0.01,VWS V14.01,2013-08-23 13:54:00,
2013-08-23 09:59:00,65.0,65.0,30.08,NW,326,1.0,1.0,100,0.00,,OVC055,0.01,VWS V14.01,2013-08-23 13:59:00,
2013-08-23 10:00:00,65.0,65.0,30.08,NW,322,1.0,2.0,100,0.00,,OVC055,0.01,VWS V14.01,2013-08-23 14:00:00,
2013-08-23 10:04:00,65.1,65.1,30.08,North,360,0.0,1.0,100,0.00,,OVC055,0.01,VWS V14.01,2013-08-23 14:04:00,
2013-08-23 10:09:00,64.9,64.9,30.08,North,360,0.0,1.0,100,0.00,,OVC055,0.01,VWS V14.01,2013-08-23 14:09:00,
2013-08-23 10:14:00,64.9,64.9,30.08,North,360,1.0,2.0,100,0.00,,OVC055,0.01,VWS V14.01,2013-08-23 14:14:00,
2013-08-23 10:19:00,65.1,65.1,30.08,North,360,0.0,2.0,100,0.00,,OVC055,0.01,VWS V14.01,2013-08-23 14:19:00,
2013-08-23 10:24:00,65.8,65.8,30.08,North,360,2.0,2.0,100,0.00,,OVC055,0.01,VWS V14.01,2013-08-23 14:24:00,
2013-08-23 10:29:00,66.1,66.1,30.08,North,360,2.0,2.0,100,0.00,,OVC055,0.01,VWS V14.01,2013-08-23 14:29:00,
2013-08-23 10:30:00,66.0,66.0,30.08,North,360,2.0,3.0,100,0.00,,OVC055,0.01,VWS V14.01,2013-08-23 14:30:00,
2013-08-23 10:34:00,67.1,67.1,30.08,North,360,0.0,2.0,100,0.00,,OVC055,0.01,VWS V14.01,2013-08-23 14:34:00,
2013-08-23 10:39:00,67.3,67.3,30.08,NNE,14,2.0,3.0,100,0.00,,OVC055,0.01,VWS V14.01,2013-08-23 14:39:00,
2013-08-23 10:44:00,68.0,68.0,30.08,NNE,14,2.0,3.0,100,0.00,,OVC055,0.01,VWS V14.01,2013-08-23 14:44:00,
2013-08-23 10:49:00,68.5,68.5,30.08,NNE,14,2.0,3.0,100,0.00,,OVC055,0.01,VWS V14.01,2013-08-23 14:49:00,
2013-08-23 10:54:00,69.5,69.2,30.08,NNE,14,0.0,3.0,99,0.00,,OVC055,0.01,VWS V14.01,2013-08-23 14:54:00,
2013-08-23 10:59:00,70.4,69.5,30.08,NNE,14,0.0,1.0,97,0.00,,OVC055,0.01,VWS V14.01,2013-08-23 14:59:00,
2013-08-23 11:00:00,70.3,69.1,30.08,NNE,14,0.0,3.0,96,0.00,,OVC055,0.01,VWS V14.01,2013-08-23 15:00:00,
2013-08-23 11:04:00,71.5,70.0,30.08,NNE,14,0.0,2.0,95,0.00,,OVC055,0.01,VWS V14.01,2013-08-23 15:04:00,
2013-08-23 11:09:00,72.4,69.9,30.08,NNE,14,0.0,2.0,92,0.00,,OVC055,0.01,VWS V14.01,2013-08-23 15:09:00,
2013-08-23 11:14:00,73.2,69.4,30.08,NNE,14,1.0,2.0,88,0.00,,OVC055,0.01,VWS V14.01,2013-08-23 15:14:00,
2013-08-23 11:19:00,73.7,69.6,30.08,NNE,14,2.0,3.0,87,0.00,,OVC055,0.01,VWS V14.01,2013-08-23 15:19:00,
2013-08-23 11:24:00,74.8,71.7,30.08,NNE,14,0.0,3.0,90,0.00,,OVC055,0.01,VWS V14.01,2013-08-23 15:24:00,
2013-08-23 11:29:00,75.8,72.3,30.07,NNE,14,1.0,1.0,89,0.00,,OVC055,0.01,VWS V14.01,2013-08-23 15:29:00,
2013-08-23 11:30:00,75.7,71.6,30.07,NNE,14,0.0,3.0,87,0.00,,OVC055,0.01,VWS V14.01,2013-08-23 15:30:00,
2013-08-23 11:34:00,76.4,72.2,30.07,NNE,14,0.0,1.0,87,0.00,,OVC055,0.01,VWS V14.01,2013-08-23 15:34:00,
2013-08-23 11:39:00,77.0,71.8,30.07,North,11,1.0,2.0,84,0.00,,OVC055,0.01,VWS V14.01,2013-08-23 15:39:00,
2013-08-23 11:44:00,77.8,71.5,30.07,North,11,2.0,3.0,81,0.00,,OVC055,0.01,VWS V14.01,2013-08-23 15:44:00,
2013-08-23 11:49:00,78.3,72.0,30.07,North,11,0.0,3.0,81,0.00,,OVC055,0.01,VWS V14.01,2013-08-23 15:49:00,
2013-08-23 11:54:00,78.7,72.8,30.07,North,11,0.0,3.0,82,0.00,,OVC055,0.01,VWS V14.01,2013-08-23 15:54:00,
2013-08-23 11:59:00,79.5,71.3,30.07,North,11,0.0,2.0,76,0.00,,OVC055,0.01,VWS V14.01,2013-08-23 15:59:00,
2013-08-23 12:00:00,79.4,72.7,30.07,North,11,1.0,3.0,80,0.00,,OVC055,0.01,VWS V14.01,2013-08-23 16:00:00,
2013-08-23 12:04:00,79.7,71.5,30.06,North,11,0.0,2.0,76,0.00,,OVC055,0.01,VWS V14.01,2013-08-23 16:04:00,
2013-08-23 12:09:00,80.1,73.4,30.06,North,11,1.0,2.0,80,0.00,,OVC055,0.01,VWS V14.01,2013-08-23 16:09:00,
2013-08-23 12:14:00,79.9,70.5,30.06,North,11,1.0,2.0,73,0.00,,OVC055,0.01,VWS V14.01,2013-08-23 16:14:00,
2013-08-23 12:19:00,79.9,70.1,30.06,NE,52,0.0,2.0,72,0.00,,OVC055,0.01,VWS V14.01,2013-08-23 16:19:00,
2013-08-23 12:24:00,79.9,72.4,30.05,NE,52,0.0,2.0,78,0.00,,OVC055,0.01,VWS V14.01,2013-08-23 16:24:00,
2013-08-23 12:29:00,80.3,72.4,30.05,NNE,19,0.0,0.0,77,0.00,,OVC055,0.01,VWS V14.01,2013-08-23 16:29:00,
2013-08-23 12:30:00,80.2,71.9,30.06,NNE,19,0.0,3.0,76,0.00,,OVC055,0.01,VWS V14.01,2013-08-23 16:30:00,
2013-08-23 12:34:00,80.7,72.8,30.05,NNE,15,0.0,1.0,77,0.00,,OVC055,0.01,VWS V14.01,2013-08-23 16:34:00,
2013-08-23 12:39:00,81.2,71.7,30.05,NNE,15,1.0,2.0,73,0.00,,OVC055,0.01,VWS V14.01,2013-08-23 16:39:00,
2013-08-23 12:44:00,81.9,71.2,30.05,North,9,0.0,2.0,70,0.00,,OVC055,0.01,VWS V14.01,2013-08-23 16:44:00,
2013-08-23 12:49:00,81.6,72.5,30.05,North,9,0.0,2.0,74,0.00,,OVC055,0.01,VWS V14.01,2013-08-23 16:49:00,
2013-08-23 12:54:00,81.1,73.2,30.05,North,9,0.0,2.0,77,0.00,,OVC055,0.01,VWS V14.01,2013-08-23 16:54:00,
2013-08-23 12:59:00,81.7,73.4,30.05,NE,44,1.0,1.0,76,0.00,,OVC055,0.01,VWS V14.01,2013-08-23 16:59:00,
2013-08-23 13:00:00,81.5,74.0,30.04,NE,44,1.0,2.0,78,0.00,,OVC055,0.01,VWS V14.01,2013-08-23 17:00:00,
2013-08-23 13:04:00,82.0,70.4,30.04,ENE,68,0.0,2.0,68,0.00,,OVC055,0.01,VWS V14.01,2013-08-23 17:04:00,
2013-08-23 13:09:00,82.0,70.8,30.04,NNE,33,3.0,4.0,69,0.00,,OVC055,0.01,VWS V14.01,2013-08-23 17:09:00,
2013-08-23 13:14:00,81.4,70.3,30.04,NE,56,1.0,5.0,69,0.00,,OVC055,0.01,VWS V14.01,2013-08-23 17:14:00,
2013-08-23 13:19:00,81.7,73.0,30.04,NE,56,0.0,5.0,75,0.00,,OVC055,0.01,VWS V14.01,2013-08-23 17:19:00,
2013-08-23 13:24:00,82.0,74.1,30.03,NE,56,0.0,5.0,77,0.00,,OVC055,0.01,VWS V14.01,2013-08-23 17:24:00,
2013-08-23 13:29:00,82.0,74.1,30.03,North,355,2.0,2.0,77,0.00,,OVC055,0.01,VWS V14.01,2013-08-23 17:29:00,
2013-08-23 13:30:00,82.0,73.3,30.03,North,355,1.0,5.0,75,0.00,,OVC055,0.01,VWS V14.01,2013-08-23 17:30:00,
2013-08-23 13:34:00,82.4,72.5,30.03,North,360,0.0,2.0,72,0.00,,OVC055,0.01,VWS V14.01,2013-08-23 17:34:00,
2013-08-23 13:39:00,83.0,73.5,30.02,NNE,25,2.0,5.0,73,0.00,,OVC055,0.01,VWS V14.01,2013-08-23 17:39:00,
2013-08-23 13:44:00,83.3,71.2,30.02,North,355,2.0,6.0,67,0.00,,OVC055,0.01,VWS V14.01,2013-08-23 17:44:00,
2013-08-23 13:49:00,83.2,72.8,30.02,North,355,2.0,6.0,71,0.00,,OVC055,0.01,VWS V14.01,2013-08-23 17:49:00,
2013-08-23 13:54:00,82.5,73.0,30.02,North,350,0.0,6.0,73,0.00,,OVC055,0.01,VWS V14.01,2013-08-23 17:54:00,
2013-08-23 13:59:00,82.0,72.9,30.02,North,351,0.0,0.0,74,0.00,,OVC055,0.01,VWS V14.01,2013-08-23 17:59:00,
2013-08-23 14:00:00,82.1,71.3,30.02,North,350,0.0,6.0,70,0.00,,OVC055,0.01,VWS V14.01,2013-08-23 18:00:00,
2013-08-23 14:04:00,81.5,69.5,30.02,North,350,1.0,2.0,67,0.00,,OVC055,0.01,VWS V14.01,2013-08-23 18:04:00,
2013-08-23 14:09:00,80.4,71.0,30.02,North,350,1.0,2.0,73,0.00,,OVC055,0.01,VWS V14.01,2013-08-23 18:09:00,
2013-08-23 14:14:00,79.3,71.5,30.01,North,350,0.0,2.0,77,0.00,,OVC055,0.01,VWS V14.01,2013-08-23 18:14:00,
2013-08-23 14:19:00,80.2,70.8,30.01,North,350,0.0,2.0,73,0.00,,OVC055,0.01,VWS V14.01,2013-08-23 18:19:00,
2013-08-23 14:23:00,81.0,71.5,30.01,North,350,1.0,2.0,73,0.00,,OVC055,0.01,VWS V14.01,2013-08-23 18:23:00,
2013-08-23 14:28:00,79.5,70.9,30.01,North,350,0.0,0.0,75,0.00,,OVC055,0.01,VWS V14.01,2013-08-23 18:28:00,
2013-08-23 14:30:00,79.6,71.0,30.01,North,350,0.0,2.0,75,0.00,,OVC055,0.01,VWS V14.01,2013-08-23 18:30:00,
2013-08-23 14:33:00,78.4,71.3,30.01,North,350,0.0,1.0,79,0.00,,OVC055,0.01,VWS V14.01,2013-08-23 18:33:00,
2013-08-23 14:38:00,78.4,71.7,30.01,North,350,0.0,1.0,80,0.00,,OVC055,0.01,VWS V14.01,2013-08-23 18:38:00,
2013-08-23 14:43:00,79.1,71.7,30.01,North,351,1.0,1.0,78,0.00,,OVC055,0.01,VWS V14.01,2013-08-23 18:43:00,
2013-08-23 14:48:00,80.7,71.2,30.00,North,350,0.0,2.0,73,0.00,,OVC055,0.01,VWS V14.01,2013-08-23 18:48:00,
2013-08-23 14:53:00,81.9,72.4,30.00,North,350,0.0,2.0,73,0.00,,OVC055,0.01,VWS V14.01,2013-08-23 18:53:00,
2013-08-23 14:58:00,82.5,69.6,30.00,North,351,0.0,1.0,65,0.00,,OVC055,0.01,VWS V14.01,2013-08-23 18:58:00,
2013-08-23 15:00:00,82.4,69.5,30.00,North,350,0.0,2.0,65,0.00,,OVC055,0.01,VWS V14.01,2013-08-23 19:00:00,
2013-08-23 15:03:00,82.7,72.8,29.99,North,351,0.0,1.0,72,0.00,,OVC055,0.01,VWS V14.01,2013-08-23 19:03:00,
2013-08-23 15:08:00,82.8,72.4,29.99,North,350,0.0,1.0,71,0.00,,OVC055,0.01,VWS V14.01,2013-08-23 19:08:00,
2013-08-23 15:13:00,83.0,72.6,29.99,North,350,0.0,2.0,71,0.00,,OVC055,0.01,VWS V14.01,2013-08-23 19:13:00,
2013-08-23 15:18:00,82.7,70.2,29.98,North,9,2.0,3.0,66,0.00,,OVC055,0.01,VWS V14.01,2013-08-23 19:18:00,
2013-08-23 15:23:00,81.3,72.6,29.98,North,9,0.0,3.0,75,0.00,,OVC055,0.01,VWS V14.01,2013-08-23 19:23:00,
2013-08-23 15:28:00,79.5,71.3,29.98,North,9,1.0,1.0,76,0.00,,OVC055,0.01,VWS V14.01,2013-08-23 19:28:00,
2013-08-23 15:30:00,79.6,71.4,29.98,North,9,1.0,3.0,76,0.00,,OVC055,0.01,VWS V14.01,2013-08-23 19:30:00,
2013-08-23 15:33:00,77.9,71.2,29.98,North,9,0.0,1.0,80,0.00,,OVC055,0.01,VWS V14.01,2013-08-23 19:33:00,
2013-08-23 15:38:00,77.0,71.4,29.98,North,9,0.0,1.0,83,0.00,,OVC055,0.01,VWS V14.01,2013-08-23 19:38:00,
2013-08-23 15:43:00,76.4,71.2,29.98,North,9,1.0,1.0,84,0.00,,OVC055,0.01,VWS V14.01,2013-08-23 19:43:00,
2013-08-23 15:48:00,75.7,70.9,29.98,North,9,1.0,1.0,85,0.00,,OVC055,0.01,VWS V14.01,2013-08-23 19:48:00,
2013-08-23 15:53:00,75.2,70.4,29.98,North,9,0.0,1.0,85,0.00,,OVC055,0.01,VWS V14.01,2013-08-23 19:53:00,
2013-08-23 15:58:00,74.9,70.1,29.98,North,9,0.0,1.0,85,0.00,,OVC055,0.01,VWS V14.01,2013-08-23 19:58:00,
2013-08-23 16:00:00,74.9,70.1,29.98,North,9,1.0,1.0,85,0.00,,OVC055,0.01,VWS V14.01,2013-08-23 20:00:00,
2013-08-23 16:03:00,74.6,71.2,29.98,North,9,0.0,1.0,89,0.00,,OVC055,0.01,VWS V14.01,2013-08-23 20:03:00,
2013-08-23 16:08:00,74.2,70.8,29.98,North,355,1.0,1.0,89,0.00,,OVC055,0.01,VWS V14.01,2013-08-23 20:08:00,
2013-08-23 16:13:00,74.0,70.9,29.98,North,355,1.0,1.0,90,0.00,,OVC055,0.01,VWS V14.01,2013-08-23 20:13:00,
2013-08-23 16:18:00,73.9,71.1,29.98,ENE,57,0.0,2.0,91,0.00,,OVC055,0.01,VWS V14.01,2013-08-23 20:18:00,
2013-08-23 16:23:00,74.0,71.5,29.98,ENE,57,0.0,2.0,92,0.00,,OVC055,0.01,VWS V14.01,2013-08-23 20:23:00,
2013-08-23 16:28:00,74.1,71.9,29.98,ENE,57,0.0,0.0,93,0.00,,OVC055,0.01,VWS V14.01,2013-08-23 20:28:00,
2013-08-23 16:30:00,74.1,71.9,29.98,ENE,57,0.0,2.0,93,0.00,,OVC055,0.01,VWS V14.01,2013-08-23 20:30:00,
2013-08-23 16:33:00,74.2,72.7,29.98,ENE,57,0.0,0.0,95,0.00,,OVC055,0.01,VWS V14.01,2013-08-23 20:33:00,
2013-08-23 16:38:00,74.8,72.6,29.97,ENE,57,0.0,1.0,93,0.00,,OVC055,0.01,VWS V14.01,2013-08-23 20:38:00,
2013-08-23 16:43:00,75.8,73.3,29.98,ENE,57,0.0,1.0,92,0.00,,OVC055,0.01,VWS V14.01,2013-08-23 20:43:00,
2013-08-23 16:48:00,77.0,74.2,29.97,ENE,57,0.0,2.0,91,0.00,,OVC055,0.01,VWS V14.01,2013-08-23 20:48:00,
2013-08-23 16:53:00,78.2,73.7,29.97,NE,56,0.0,2.0,86,0.00,,OVC055,0.01,VWS V14.01,2013-08-23 20:53:00,
2013-08-23 16:58:00,79.3,74.4,29.98,NE,56,0.0,0.0,85,0.00,,OVC055,0.01,VWS V14.01,2013-08-23 20:58:00,
2013-08-23 17:00:00,79.2,74.3,29.98,NE,56,0.0,2.0,85,0.00,,OVC055,0.01,VWS V14.01,2013-08-23 21:00:00,
2013-08-23 17:03:00,79.8,74.5,29.97,NE,56,1.0,1.0,84,0.00,,OVC055,0.01,VWS V14.01,2013-08-23 21:03:00,
2013-08-23 17:08:00,80.0,73.3,29.97,ENE,61,1.0,2.0,80,0.00,,OVC055,0.01,VWS V14.01,2013-08-23 21:08:00,
2013-08-23 17:13:00,80.5,73.4,29.97,SE,132,0.0,3.0,79,0.00,,OVC055,0.01,VWS V14.01,2013-08-23 21:13:00,
2013-08-23 17:18:00,80.6,73.1,29.97,SSE,155,2.0,3.0,78,0.00,,OVC055,0.01,VWS V14.01,2013-08-23 21:18:00,
2013-08-23 17:23:00,80.6,73.9,29.97,SSE,155,0.0,3.0,80,0.00,,OVC055,0.01,VWS V14.01,2013-08-23 21:23:00,
2013-08-23 17:28:00,80.5,73.4,29.97,SSE,155,0.0,3.0,79,0.00,,OVC055,0.01,VWS V14.01,2013-08-23 21:28:00,
2013-08-23 17:30:00,80.5,73.4,29.97,SSE,155,0.0,3.0,79,0.00,,OVC055,0.01,VWS V14.01,2013-08-23 21:30:00,
2013-08-23 17:33:00,80.6,73.9,29.97,SSE,155,0.0,2.0,80,0.00,,OVC055,0.01,VWS V14.01,2013-08-23 21:33:00,
2013-08-23 17:38:00,80.5,73.4,29.97,SW,233,0.0,2.0,79,0.00,,OVC055,0.01,VWS V14.01,2013-08-23 21:38:00,
2013-08-23 17:43:00,79.8,72.3,29.97,SW,233,0.0,2.0,78,0.00,,OVC055,0.01,VWS V14.01,2013-08-23 21:43:00,
2013-08-23 17:48:00,79.3,71.1,29.97,SW,233,0.0,2.0,76,0.00,,OVC055,0.01,VWS V14.01,2013-08-23 21:48:00,
2013-08-23 17:53:00,78.9,71.8,29.98,SW,233,0.0,2.0,79,0.00,,OVC055,0.01,VWS V14.01,2013-08-23 21:53:00,
2013-08-23 17:58:00,78.2,69.6,29.98,South,178,1.0,3.0,75,0.00,,OVC055,0.01,VWS V14.01,2013-08-23 21:58:00,
2013-08-23 18:00:00,78.2,69.6,29.98,South,178,1.0,3.0,75,0.00,,OVC055,0.01,VWS V14.01,2013-08-23 22:00:00,
2013-08-23 18:03:00,76.7,70.4,29.99,SW,229,1.0,3.0,81,0.01,,OVC055,0.02,VWS V14.01,2013-08-23 22:03:00,
2013-08-23 18:08:00,75.5,70.3,29.99,SW,229,0.0,3.0,84,0.04,,OVC055,0.05,VWS V14.01,2013-08-23 22:08:00,
2013-08-23 18:13:00,73.8,69.7,30.00,SW,229,0.0,3.0,87,0.12,,OVC055,0.13,VWS V14.01,2013-08-23 22:13:00,
2013-08-23 18:18:00,72.4,69.6,30.02,NW,310,1.0,3.0,91,0.24,,OVC055,0.25,VWS V14.01,2013-08-23 22:18:00,
2013-08-23 18:23:00,71.1,68.0,30.02,SSW,212,3.0,4.0,90,0.44,,OVC055,0.45,VWS V14.01,2013-08-23 22:23:00,
2013-08-23 18:28:00,69.7,67.9,30.00,South,185,0.0,4.0,94,0.69,,OVC055,0.70,VWS V14.01,2013-08-23 22:28:00,
2013-08-23 18:30:00,69.6,68.1,30.00,South,185,0.0,4.0,95,0.71,,OVC055,0.72,VWS V14.01,2013-08-23 22:30:00,
2013-08-23 18:33:00,69.0,67.8,30.01,NNW,340,2.0,4.0,96,0.92,,OVC055,0.93,VWS V14.01,2013-08-23 22:33:00,
2013-08-23 18:38:00,68.6,67.7,30.02,SSW,204,1.0,4.0,97,1.01,,OVC055,1.02,VWS V14.01,2013-08-23 22:38:00,
2013-08-23 18:43:00,68.4,67.8,30.02,WSW,250,1.0,4.0,98,1.01,,OVC055,1.02,VWS V14.01,2013-08-23 22:43:00,
2013-08-23 18:48:00,68.1,67.5,30.01,NE,51,0.0,5.0,98,1.01,,OVC055,1.02,VWS V14.01,2013-08-23 22:48:00,
2013-08-23 18:53:00,68.1,67.8,30.02,NE,51,0.0,5.0,99,1.01,,OVC055,1.02,VWS V14.01,2013-08-23 22:53:00,
2013-08-23 18:58:00,68.0,67.7,30.02,ESE,103,0.0,5.0,99,1.01,,OVC055,1.02,VWS V14.01,2013-08-23 22:58:00,
2013-08-23 19:00:00,68.0,67.7,30.02,ESE,103,0.0,5.0,99,1.01,,OVC055,1.02,VWS V14.01,2013-08-23 23:00:00,
2013-08-23 19:03:00,67.9,67.6,30.02,ESE,103,1.0,2.0,99,1.01,,OVC055,1.02,VWS V14.01,2013-08-23 23:03:00,
2013-08-23 19:08:00,68.0,67.7,30.02,East,100,0.0,2.0,99,1.01,,OVC055,1.02,VWS V14.01,2013-08-23 23:08:00,
2013-08-23 19:13:00,68.1,67.8,30.03,East,100,0.0,2.0,99,1.01,,OVC055,1.02,VWS V14.01,2013-08-23 23:13:00,
2013-08-23 19:18:00,68.0,67.7,30.03,East,100,0.0,2.0,99,1.01,,OVC055,1.02,VWS V14.01,2013-08-23 23:18:00,
2013-08-23 19:23:00,67.9,67.6,30.03,East,100,0.0,2.0,99,1.01,,OVC055,1.02,VWS V14.01,2013-08-23 23:23:00,
2013-08-23 19:28:00,67.9,67.6,30.02,East,100,0.0,2.0,99,1.01,,OVC055,1.02,VWS V14.01,2013-08-23 23:28:00,
2013-08-23 19:30:00,67.9,67.6,30.02,East,100,0.0,2.0,99,1.01,,OVC055,1.02,VWS V14.01,2013-08-23 23:30:00,
2013-08-23 19:33:00,67.7,67.4,30.02,East,100,0.0,0.0,99,0.30,,OVC055,1.02,VWS V14.01,2013-08-23 23:33:00,
2013-08-23 19:38:00,67.6,67.6,30.02,East,100,0.0,0.0,100,0.30,,OVC055,1.02,VWS V14.01,2013-08-23 23:38:00,
2013-08-23 19:43:00,67.6,67.6,30.02,East,100,0.0,0.0,100,0.30,,OVC055,1.02,VWS V14.01,2013-08-23 23:43:00,
2013-08-23 19:48:00,67.5,67.5,30.02,East,100,0.0,0.0,100,0.30,,OVC055,1.02,VWS V14.01,2013-08-23 23:48:00,
2013-08-23 19:53:00,67.4,67.4,30.03,East,100,0.0,0.0,100,0.30,,OVC055,1.02,VWS V14.01,2013-08-23 23:53:00,
2013-08-23 19:58:00,67.4,67.4,30.03,East,96,0.0,0.0,100,0.30,,OVC055,1.02,VWS V14.01,2013-08-23 23:58:00,
2013-08-23 20:00:00,67.4,67.4,30.03,East,96,0.0,0.0,100,0.30,,OVC055,1.02,VWS V14.01,2013-08-24 00:00:00,
2013-08-23 20:03:00,67.3,67.3,30.03,East,96,0.0,2.0,100,0.00,,OVC055,1.02,VWS V14.01,2013-08-24 00:03:00,
2013-08-23 20:08:00,67.3,67.3,30.03,East,96,0.0,2.0,100,0.00,,OVC055,1.02,VWS V14.01,2013-08-24 00:08:00,
2013-08-23 20:13:00,67.3,67.3,30.04,East,96,0.0,2.0,100,0.00,,OVC055,1.02,VWS V14.01,2013-08-24 00:13:00,
2013-08-23 20:18:00,67.2,67.2,30.04,East,96,0.0,2.0,100,0.00,,OVC055,1.02,VWS V14.01,2013-08-24 00:18:00,
2013-08-23 20:23:00,67.3,67.3,30.04,East,96,0.0,2.0,100,0.00,,OVC055,1.02,VWS V14.01,2013-08-24 00:23:00,
2013-08-23 20:28:00,67.2,67.2,30.05,East,96,0.0,2.0,100,0.00,,OVC055,1.02,VWS V14.01,2013-08-24 00:28:00,
2013-08-23 20:30:00,67.2,67.2,30.05,East,96,0.0,2.0,100,0.00,,OVC055,1.02,VWS V14.01,2013-08-24 00:30:00,
2013-08-23 20:33:00,67.2,67.2,30.05,East,96,0.0,0.0,100,0.00,,OVC055,1.02,VWS V14.01,2013-08-24 00:33:00,
2013-08-23 20:38:00,67.2,67.2,30.05,East,96,0.0,0.0,100,0.00,,OVC055,1.02,VWS V14.01,2013-08-24 00:38:00,
2013-08-23 20:43:00,67.2,67.2,30.05,East,96,0.0,0.0,100,0.00,,OVC055,1.02,VWS V14.01,2013-08-24 00:43:00,
2013-08-23 20:47:00,67.1,67.1,30.05,East,96,0.0,0.0,100,0.00,,OVC055,1.02,VWS V14.01,2013-08-24 00:47:00,
2013-08-23 20:52:00,67.1,67.1,30.05,East,96,0.0,0.0,100,0.00,,OVC055,1.02,VWS V14.01,2013-08-24 00:52:00,
2013-08-23 20:57:00,67.0,67.0,30.05,East,96,0.0,0.0,100,0.00,,OVC055,1.02,VWS V14.01,2013-08-24 00:57:00,
2013-08-23 21:00:00,67.0,67.0,30.05,East,96,0.0,0.0,100,0.00,,OVC055,1.02,VWS V14.01,2013-08-24 01:00:00,
2013-08-23 21:02:00,66.9,66.9,30.06,East,96,0.0,0.0,100,0.00,,OVC055,1.02,VWS V14.01,2013-08-24 01:02:00,
2013-08-23 21:07:00,66.8,66.8,30.06,East,96,0.0,0.0,100,0.00,,OVC055,1.02,VWS V14.01,2013-08-24 01:07:00,
2013-08-23 21:12:00,66.7,66.7,30.06,East,96,0.0,0.0,100,0.00,,OVC055,1.02,VWS V14.01,2013-08-24 01:12:00,
2013-08-23 21:17:00,66.7,66.7,30.06,East,96,0.0,0.0,100,0.00,,OVC055,1.02,VWS V14.01,2013-08-24 01:17:00,
2013-08-23 21:22:00,66.7,66.7,30.06,East,96,0.0,0.0,100,0.00,,OVC055,1.02,VWS V14.01,2013-08-24 01:22:00,
2013-08-23 21:27:00,66.7,66.7,30.06,East,96,0.0,0.0,100,0.00,,OVC055,1.02,VWS V14.01,2013-08-24 01:27:00,
2013-08-23 21:30:00,66.7,66.7,30.06,East,96,0.0,0.0,100,0.00,,OVC055,1.02,VWS V14.01,2013-08-24 01:30:00,
2013-08-23 21:32:00,66.7,66.7,30.06,East,96,0.0,0.0,100,0.00,,OVC055,1.02,VWS V14.01,2013-08-24 01:32:00,
2013-08-23 21:37:00,66.7,66.7,30.06,East,96,0.0,1.0,100,0.00,,OVC055,1.02,VWS V14.01,2013-08-24 01:37:00,
2013-08-23 21:42:00,66.6,66.6,30.06,East,96,0.0,1.0,100,0.00,,OVC055,1.02,VWS V14.01,2013-08-24 01:42:00,
2013-08-23 21:47:00,66.5,66.5,30.06,East,96,0.0,1.0,100,0.00,,OVC055,1.02,VWS V14.01,2013-08-24 01:47:00,
2013-08-23 21:52:00,66.5,66.5,30.07,East,96,0.0,1.0,100,0.00,,OVC055,1.02,VWS V14.01,2013-08-24 01:52:00,
2013-08-23 21:57:00,66.5,66.5,30.06,East,96,0.0,1.0,100,0.00,,OVC055,1.02,VWS V14.01,2013-08-24 01:57:00,
2013-08-23 22:00:00,66.5,66.5,30.06,East,96,0.0,1.0,100,0.00,,OVC055,1.02,VWS V14.01,2013-08-24 02:00:00,
2013-08-23 22:02:00,66.5,66.5,30.07,East,96,0.0,1.0,100,0.00,,OVC055,1.02,VWS V14.01,2013-08-24 02:02:00,
2013-08-23 22:07:00,66.4,66.4,30.07,East,96,0.0,1.0,100,0.00,,OVC055,1.02,VWS V14.01,2013-08-24 02:07:00,
2013-08-23 22:12:00,66.4,66.4,30.07,East,96,0.0,1.0,100,0.00,,OVC055,1.02,VWS V14.01,2013-08-24 02:12:00,
2013-08-23 22:17:00,66.3,66.3,30.07,East,96,0.0,1.0,100,0.00,,OVC055,1.02,VWS V14.01,2013-08-24 02:17:00,
2013-08-23 22:22:00,66.3,66.3,30.07,East,96,0.0,1.0,100,0.00,,OVC055,1.02,VWS V14.01,2013-08-24 02:22:00,
2013-08-23 22:27:00,66.2,66.2,30.06,East,96,0.0,1.0,100,0.00,,OVC055,1.02,VWS V14.01,2013-08-24 02:27:00,
2013-08-23 22:30:00,66.2,66.2,30.06,East,96,0.0,1.0,100,0.00,,OVC055,1.02,VWS V14.01,2013-08-24 02:30:00,
2013-08-23 22:32:00,66.2,66.2,30.06,East,96,0.0,0.0,100,0.00,,OVC055,1.02,VWS V14.01,2013-08-24 02:32:00,
2013-08-23 22:37:00,66.1,66.1,30.06,East,96,0.0,0.0,100,0.00,,OVC055,1.02,VWS V14.01,2013-08-24 02:37:00,
2013-08-23 22:42:00,66.0,66.0,30.06,East,96,0.0,0.0,100,0.00,,OVC055,1.02,VWS V14.01,2013-08-24 02:42:00,
2013-08-23 22:47:00,66.1,66.1,30.06,East,96,0.0,0.0,100,0.00,,OVC055,1.02,VWS V14.01,2013-08-24 02:47:00,
2013-08-23 22:52:00,66.0,66.0,30.06,East,96,0.0,0.0,100,0.01,,OVC055,1.03,VWS V14.01,2013-08-24 02:52:00,
2013-08-23 22:57:00,65.9,65.9,30.06,East,96,0.0,0.0,100,0.01,,OVC055,1.03,VWS V14.01,2013-08-24 02:57:00,
2013-08-23 23:00:00,65.9,65.9,30.06,East,96,0.0,0.0,100,0.01,,OVC055,1.03,VWS V14.01,2013-08-24 03:00:00,
2013-08-23 23:02:00,65.9,65.9,30.07,East,96,0.0,0.0,100,0.01,,OVC055,1.03,VWS V14.01,2013-08-24 03:02:00,
2013-08-23 23:07:00,65.9,65.9,30.07,East,96,0.0,1.0,100,0.01,,OVC055,1.03,VWS V14.01,2013-08-24 03:07:00,
2013-08-23 23:12:00,65.9,65.9,30.07,East,96,0.0,1.0,100,0.01,,OVC055,1.03,VWS V14.01,2013-08-24 03:12:00,
2013-08-23 23:17:00,65.9,65.9,30.07,East,96,0.0,1.0,100,0.01,,OVC055,1.03,VWS V14.01,2013-08-24 03:17:00,
2013-08-23 23:22:00,65.9,65.9,30.07,East,96,0.0,1.0,100,0.01,,OVC055,1.03,VWS V14.01,2013-08-24 03:22:00,
2013-08-23 23:27:00,65.9,65.9,30.08,East,96,0.0,1.0,100,0.01,,OVC055,1.03,VWS V14.01,2013-08-24 03:27:00,
2013-08-23 23:30:00,65.9,65.9,30.08,East,96,0.0,1.0,100,0.01,,OVC055,1.03,VWS V14.01,2013-08-24 03:30:00,
2013-08-23 23:32:00,66.0,66.0,30.08,East,96,0.0,0.0,100,0.01,,OVC055,1.03,VWS V14.01,2013-08-24 03:32:00,
2013-08-23 23:37:00,65.9,65.9,30.08,East,96,0.0,0.0,100,0.01,,OVC055,1.03,VWS V14.01,2013-08-24 03:37:00,
2013-08-23 23:42:00,65.9,65.9,30.08,East,96,0.0,0.0,100,0.01,,OVC055,1.03,VWS V14.01,2013-08-24 03:42:00,
2013-08-23 23:47:00,65.8,65.8,30.09,East,96,0.0,0.0,100,0.01,,OVC055,1.03,VWS V14.01,2013-08-24 03:47:00,
2013-08-23 23:52:00,65.7,65.7,30.09,East,96,0.0,0.0,100,0.01,,OVC055,1.03,VWS V14.01,2013-08-24 03:52:00,
2013-08-23 23:57:00,65.6,65.6,30.09,East,96,0.0,0.0,100,0.01,,OVC055,1.03,VWS V14.01,2013-08-24 03:57:00,